Location: Fasanenhof
(48.7107°N, 9.1590°E)
Time: 12:44:59
(UTC+00:00)

ISS - Visible Passes

Search period start: 18 December 2017 00:00
Search period end: 28 December 2017 00:00
Orbit: 402 x 406 km, 51.6° (Epoch: 18 December)

Date Brightness Start Highest point End Pass type
(mag) Time Alt. Az. Time Alt. Az. Time Alt. Az.
25 Dec -0.7 06:37:03 10° S 06:39:22 18° SE 06:41:41 10° E visible
26 Dec -0.2 05:46:26 10° SSE 05:47:16 11° SE 05:48:06 10° ESE visible
27 Dec -1.9 06:27:52 10° SSW 06:30:53 34° SE 06:33:54 10° E visible
